Погода Сумы

Хотите узнать прогноз погоды Сумы? Тогда Вам сюда: Погода Сумы

Поиск расширенной информации на нашем сайте:

Полезная информация:

Новости сайта



14.11.2019
Обновлён Долгосрочный прогноз погоды по России и другим странам хСССР на ноябрь-декабрь 2019 года.
Опубликованы прогностические карты: Предварительный прогноз на декабрь 2019 года, Предварительный прогноз на январь 2020 года, Предварительная схема синоптических процессов на декабрь 2019 г..

11.11.2019
Обновлены Долгосрочный прогноз погоды по России и другим странам хСССР на ноябрь-декабрь 2019 года и Предварительный прогноз на зиму 2019/2020 годов

04.11.2019
Опубликован Долгосрочный прогноз погоды по России и другим странам хСССР на ноябрь 2019 года
Сравнение прогнозируемой аномалии приземной температуры воздуха на ноябрь 2019 года по разным моделям
Предварительный прогноз на зиму 2019/2020 года




Погода Сумы - сегодня

Время (UTC), дата Ветер
(°,м/с) 
Видим.   Явления Облачность Т
(°С)
Тd
(°С)
f(%) Тe
(°С)
Pmin
(гПа)
dP
(гПа)
Po
(мм)
O2
(г/м3)
Тmin Tmax R s Состояние
почвы
00 20.11.19 040 (СВ) 4000 м  дымка  10/10 120 м 
[St]
+1.3 +1 98 +1  1031.5  0.3  756  303           
03 20.11.19 090 (В) 4000 м  дымка  10/10 120 м 
[St]
+1.2 +0.9 98 1031.9  0.4  757  303           
06 20.11.19 080 (В) 4000 м  слаб. морось  10/10 100 м 
[St]
+0.1 -0.2 98 -2  1032.6  0.6  757  305  +0.1    0.0     
09 20.11.19 100 (В) 10 км  {морось}  10/10 330 м 
[St]
+0.5 -1.5 86 -2  1033.8  1.2  758  305           
12 20.11.19 110 (В) 10 км  {морось}  10/10 300 м 
[St]
+0.7 -1.6 85 -3  1034.2  0.4  758  305      0.0     
15 20.11.19 080 (В) 10 км    10/10 240 м 
[St]
+1.7 +0.3 90 1034.9  0.8  759  304           
18 20.11.19 110 (В) 10 км  {морось}  10/10 360 м 
[St]
+3.4 +1.6 88 +1  1036  1.2  760  302    +3.4  0.0     
21 20.11.19 120 (ЮВ) 10 км  {морось}  10/10 450 м 
[Sc]
+3.1 +0.4 82 1037.5  1.4  761  303           
00 21.11.19 110 (В) 10 км  {морось}  10/10 480 м 
[Sc]
+1.5 -2.3 76 -2  1039.3  1.7  762  306      0.0     
03 21.11.19 120 (ЮВ) 10 км    10/10 420 м 
[Sc]
-0.9 -4.1 79 -5  1040.6  763  309           
06 21.11.19 110 (В) 10 км    10/10 600 м 
[Sc]
-2.9 -8.3 66 -8  1042.4  1.6  764  312  -2.9    0.0     
09 21.11.19 130 (ЮВ) 10 км  в посл. час ливневой снег  8/6 600 м средняя 
[Sc|Ac trans]
-3.3 -8.8 66 -9  1043.6  1.1  765  313           
12 21.11.19 110 (В) 10 км  {ливн. осадки}  ясно 
-3.3 -12.7 48 -8  1043  -0.6  764  313      0.0     
15 21.11.19 110 (В) 10 км    ясно 
-5.7 -14 52 -11  1043.5  0.3  765  316           
18 21.11.19 110 (В) 10 км    ясно 
-7.1 -14.6 55 -12  1044.2  0.6  765  318    -2.9  0.0     
21 21.11.19 110 (В) 10 км    ясно 
-8.3 -14.1 63 -13  1044.8  0.5  765  319           
00 22.11.19 100 (В) 10 км    ясно 
-9.2 -14.8 64 -15  1044.4  -0.5  765  320           
03 22.11.19 110 (В) 10 км    ясно 
-9.8 -15.1 65 -16  1044  -0.5  765  321           
06 22.11.19 110 (В) 10 км    4/0 верхняя 
[Ci fib]
-9.9 -16.4 59 -16  1044.5  0.5  765  321  -10.2         
09 22.11.19 110 (В) 10 км    4/0 верхняя 
[Ci fib]
-4.7 -14 48 -10  1043.8  -0.2  765  314           
12 22.11.19 110 (В) 10 км    6/0 верхняя 
[Ci fib]
-2.8 -14.1 41 -7  1041.8  -1.8  764  312           
15 22.11.19 090 (В) 10 км    6/0 верхняя 
[Ci fib]
-5.6 -15.1 47 -10  1041.3  -0.7  763  315           
18 22.11.19 010 (С) 10 км    3/0 верхняя 
[Ci fib]
-7 -15 53 -11  1041.1  -0.3  763  317    -2.5       
21 22.11.19 110 (В) 10 км    ясно 
-8.8 -15.4 59 -13  1041.6  0.3  763  319           
00 23.11.19 110 (В) 10 км    ясно 
-9.3 -14.9 64 -15  1041  -0.6  763  319           
Время (UTC), дата Ветер
(°,м/с) 
Видим.   Явления Облачность Т
(°С)
Тd
(°С)
f(%) Тe
(°С)
Pmin
(гПа)
dP
(гПа)
Po
(мм)
O2
(г/м3)
Тmin Tmax R s Состояние
почвы

Для получения пояснительной информации подведите курсор к названию столбца.

ПОГОДА Сумы - архив

Всё, что Вы хотите узнать о погоде Сумы - удобно и подробно!

Выберите нужную дату (начиная с 1 января 2019* года) и нажмите кнопку "Найти".
Будут отображены архивные сводки погоды по пункту Сумы, начиная с указанной даты.


Отображать данные в формате CSV (для использования в таблицах Excel)


Внимание! Наш архив погоды предназначен исключительно для личного некоммерческого использования в познавательных целях. Если Вам необходимы официальные справки о состоянии погоды (для производственных, юридических, коммерческих и т.п. целей), обращайтесь в органы Росгидромета.

*Примечание: данная дата относится к архиву по метеостанциям СССР (Россия, СНГ, Балтия).
Архив по метеостанциям Зарубежной Европы и Азии (кроме Китая) хранится 10 дней, по другим регионам земного шара (Китай, Африка, Америка, Австралия, Океания) - 1 день.

Сумы - район местоположения метеостанции


Название, широта, долгота, высота метеостанции:
Сумы 50.9°ш. 34.7°д. 181 м над ур. моря [Украина]

Дополнительная информация

В oтличие oт бoльшинства пoгoдных сайтoв мы публикуем пoдрoбную метеoинфoрмацию в детальнoм прoфессиoнальнoм фoрмате.

Характеристики температуры и влажнoсти вoздуха измеряются на высoте 2 м в тени вдали oт зданий и деревьев.
Скoрoсть ветра измеряется на высoте 10 м (на урoвне рoста челoвека скoрoсть ветра ниже в 1.5-2 раза). Если метеoстанция нахoдится в гoрoде или в лесу, тo скoрoсть ветра занижена на 2-4 м/с пo сравнению с oткрытым местoм. Скoрoсть ветра над акватoриями крупных рек и oзёр, а также на вершинах хoлмoв на 2-5 м/с выше, чем в oбычных услoвиях.
Атмoсфернoе давление в разных тoчках местнoсти мoжет значительнo oтличаться oт давления на метеoстанции, в зависимoсти oт услoвий рельефа (при пoдъёме на 10 м давление пoнижается примернo на 1 мм рт.ст.).